SCP
0 0 -0 -0 -0 -0 -0 -0 0 0 0 0 0 0 0 0 -0 -0 -0 -0 -0 0 0 0 0 0 0 0 0 0 0 0 0 0 0 0 0 0 0 0 0 0 0
-0 -0 -0 -0 -0 -0 -0 -0 -0 0 0 0 0 0 0 0 -0 0 -0 -0 0 0 0 0 0 0 0 0 0 0 0 0 0 0 0 0 0 0 0 0 0 0 0
-0 -0 -0 -0 -0 -0 -0 -0 -0 -0 -0 0 0 0 0 0 0 0 0 0 0 0 0 0 0 0 0 0 0 0 0 0 0 0 0 0 0 0 0 0 0 0 0
-0 -0 -0 -0 -0 -0 -0 -0 -0 -0 -0 -0 -0 -0 -0 0 0 0 0 0 0 0 0 0 0 0 0 0 0 0 0 0 0 0 0 0 0 0 0 0 0 0 0
-0 -0 -0 -0 -0 -0 -0 -0 -0 -0 -0 -0 -0 -0 -0 0 0 0 0 0 -0 -0 -0 0 0 0 0 0 0 0 0 0 0 0 0 0 0 0 0 0 0 0 0
-0 -0 -0 -0 -0 -0 -0 -0 -0 -0 -0 -0 -0 -0 -0 -0 0 0 0 0 -0 0 0 0 0 0 0 0 0 0 0 0 0 0 0 0 0 0 0 0 0 0 0
-0 -0 -0 -0 -0 -0 -0 -0 -0 -0 -0 -0 -0 -0 -0 -0 -0 -0 0 0 -0 -0 -0 0 0 0 0 0 0 0 0 0 0 0 0 0 0 0 0 0 0 0 0
0 -0 -0 -0 -0 -0 -0 -0 -0 -0 -0 -0 -0 -0 -0 0 0 -0 -0 -0 -0 -0 -0 -0 -0 -0 -0 0 0 0 0 0 0 0 0 0 0 0 0 0 0 0 0
0 0 -0 -0 -0 -0 -0 -0 -0 -0 -0 -0 -0 -0 -0 -0 0 -0 -0 -0 -0 -0 -0 -0 -0 -0 -0 -0 0 0 0 0 0 0 0 0 0 0 0 0 0 0 0
0 0 0 -0 -0 -0 0 0 -0 -0 -0 -0 -0 -0 -0 -0 0 0 0 0 -0 -0 -0 -0 -0 -0 0 0 0 0 0 0 0 0 0 0 0 0 0 0 0 0 0
0 0 0 0 -0 -0 -0 -0 0 -0 -0 0 0 0 0 0 0 0 0 0 0 0 0 0 0 0 0 0 0 0 0 0 0 0 0 0 0 0 0 0 0 0 0
0 0 0 0 0 -0 0 0 0 -0 -0 0 0 0 0 0 0 0 0 0 0 0 0 0 0 0 0 0 0 0 0 0 0 0 0 0 0 0 0 0 0 0 0
0 0 0 0 0 0 0 0 0 0 0 0 0 0 0 0 0 0 0 0 0 0 0 0 0 0 0 0 0 0 0 0 0 0 0 0 0 0 0 0 0 0 0
0 0 0 0 0 0 0 0 0 0 0 0 0 0 0 0 0 0 0 0 0 0 0 0 0 0 0 0 0 0 0 0 0 0 0 0 0 0 0 0 0 0 0
-0 0 0 0 0 0 0 0 0 0 0 0 0 0 0 0 0 0 0 0 0 0 0 0 0 0 0 0 0 0 0 0 0 0 0 0 0 0 0 0 0 0 0
-0 0 0 0 0 0 0 0 0 0 0 0 0 0 0 0 0 0 0 0 0 0 0 0 0 0 0 0 0 0 0 0 0 0 0 0 0 0 0 0 0 0 0
0 0 0 0 0 0 0 0 0 0 0 0 0 0 0 0 0 0 0 0 0 0 0 0 0 0 0 0 0 0 0 0 0 0 0 0 0 0 0 0 0 0 0
0 0 0 0 0 0 0 0 0 0 0 0 0 0 0 0 0 0 0 0 0 0 0 0 0 0 0 0 0 0 0 0 0 0 0 0 0 0 0 0 0 0 0
0 -0 0 0 0 0 0 0 0 0 0 0 0 0 0 0 0 0 0 0 0 0 0 0 0 0 0 0 0 0 0 0 0 0 0 0 0 0 0 0 0 0 0
0 0 0 -0 0 0 0 0 0 0 0 0 0 0 0 0 0 0 0 0 0 0 0 0 0 0 0 0 0 0 0 0 0 0 0 0 0 0 0 0 0 0 0
0 -0 -0 -0 0 0 0 0 0 0 0 0 0 0 0 0 0 0 0 0 0 0 0 0 0 0 0 0 0 0 0 0 0 0 0 0 0 0 0 0 0 0 0
0 0 0 0 0 0 0 0 0 0 0 0 0 0 0 0 0 0 0 0 0 0 0 0 0 0 0 0 0 0 0 0 0 0 0 0 0 0 0 0 0 0 0
0 0 0 0 0 0 0 0 0 0 0 0 0 0 0 0 0 0 0 0 0 0 0 0 0 0 0 0 0 0 0 0 0 0 0 0 0 0 0 0 0 0 0
0 0 0 0 0 0 0 0 0 0 0 0 0 0 0 0 0 0 0 0 0 0 0 0 0 0 0 0 0 0 0 0 0 0 0 0 0 0 0 0 0 0 0
0 0 0 0 0 0 0 0 0 0 0 0 0 0 0 0 0 0 0 0 0 0 0 0 0 0 0 0 0 0 0 0 0 0 0 0 0 0 0 0 0 0 0
0 0 0 0 0 0 0 0 0 0 0 0 0 0 0 0 0 0 0 0 0 0 0 0 0 0 0 0 0 0 0 0 0 0 0 0 0 0 0 0 0 0 0
Wind_Speed_500mb
26 23 19 25 28 27 32 38 60 55 66 73 73 82 81 81 84 88 70 74 72 63 56 50 46 45 42 34 28 25 24 25 27 27 27 29 30 34 36 34 33 31 27
38 33 27 27 33 34 34 43 46 62 67 74 71 80 83 81 81 71 69 75 72 65 57 53 50 50 42 42 33 28 29 34 31 33 33 30 36 46 44 43 42 39 36
50 46 40 32 30 40 43 45 48 59 72 69 74 76 72 73 80 80 79 73 71 65 62 57 53 44 44 41 36 30 32 39 38 39 37 15 22 23 26 29 31 37 39
55 50 46 41 39 37 42 45 49 60 68 79 74 89 86 85 91 89 87 73 66 62 66 57 54 50 49 46 43 37 35 39 45 50 55 54 52 35 24 31 32 30 31
62 63 57 46 39 41 45 50 54 57 63 65 80 78 89 87 86 92 100 89 80 77 73 70 56 60 60 50 48 46 46 45 48 52 59 64 67 68 66 52 44 50 43
60 61 56 51 46 43 46 49 54 60 64 69 81 81 97 96 90 90 97 96 79 92 88 82 78 64 60 51 46 49 51 50 51 57 64 72 68 67 72 75 69 63 59
43 58 64 65 58 53 50 53 56 62 71 75 80 89 91 96 103 103 94 98 96 86 84 78 80 78 72 66 60 56 54 59 63 66 67 68 72 76 82 79 70 64 60
29 52 64 67 65 59 57 57 59 61 67 74 82 84 87 92 97 95 103 111 108 96 87 85 88 88 87 86 79 78 72 66 70 74 72 64 64 74 62 74 73 62 63
30 45 59 68 68 67 64 61 60 60 63 63 69 78 84 87 91 95 99 104 113 107 102 100 97 97 96 97 94 95 90 80 75 74 75 75 54 56 63 73 80 76 52
25 35 49 62 69 68 69 68 64 61 61 63 66 69 74 79 86 88 90 94 98 103 105 100 102 100 102 103 92 88 83 82 82 79 83 80 96 80 77 79 75 69 73
21 29 36 49 61 63 68 72 74 73 72 70 70 74 76 78 80 79 76 77 79 80 78 75 81 82 86 87 83 86 88 80 77 98 96 78 68 71 74 71 71 73 65
24 23 34 38 51 62 65 69 76 80 77 76 78 78 79 78 77 79 81 84 87 77 67 82 80 81 84 81 86 92 90 79 78 71 59 64 65 63 69 65 69 67 65
22 20 25 37 44 54 60 61 67 72 80 84 84 84 83 80 82 83 83 82 75 72 84 67 78 72 79 92 93 85 86 74 62 72 63 68 66 66 63 65 60 59 54
35 27 32 41 43 51 57 56 56 61 70 76 81 87 89 89 89 88 85 84 79 79 80 81 76 72 61 68 73 80 78 72 64 66 62 61 59 56 52 51 51 48 44
64 46 44 43 45 44 52 52 50 51 56 60 66 67 76 84 88 91 91 89 87 89 91 88 90 88 86 93 93 83 66 75 70 71 68 60 47 45 43 42 41 42 42
60 59 50 45 48 45 46 49 46 49 55 54 55 60 61 66 71 75 79 82 86 93 97 98 94 97 100 93 81 65 61 64 68 66 65 57 48 44 42 44 45 44 43
54 55 55 58 52 52 50 54 50 53 59 56 57 60 59 56 55 62 66 65 69 71 79 85 85 81 73 70 57 65 71 71 67 66 57 50 43 42 43 44 44 42 40
49 40 54 61 67 64 53 54 63 59 58 62 63 63 59 53 55 57 57 58 60 62 61 59 58 59 56 49 56 59 59 54 48 49 45 42 41 42 43 44 44 41 35
63 71 70 49 53 68 70 67 66 72 66 64 69 68 62 57 54 52 53 49 43 47 55 58 62 61 53 57 58 53 50 47 46 43 39 40 42 45 48 43 36 30 31
63 70 63 63 54 49 58 68 75 73 72 68 69 65 58 53 45 40 37 37 43 49 51 52 55 56 48 45 39 40 42 43 40 40 43 46 44 43 39 31 25 28 31
59 66 76 72 63 47 42 48 58 60 65 64 58 54 50 46 36 28 34 36 40 46 49 49 46 42 38 38 32 30 29 32 36 42 43 40 35 27 23 26 27 29 32
58 50 57 65 54 40 35 38 47 56 54 49 46 43 39 32 30 30 34 36 37 43 45 45 46 40 34 31 29 27 24 30 30 31 25 22 22 24 27 29 31 32 32
48 38 33 35 35 31 27 34 38 40 40 42 43 39 39 31 28 34 39 36 38 41 41 35 29 32 34 33 34 34 31 28 23 20 18 19 24 28 32 31 28 30 31
31 21 11 4 11 14 17 21 30 36 39 41 41 39 36 33 34 33 32 32 32 30 27 30 31 31 32 30 30 28 26 22 19 17 19 22 24 25 25 25 30 34 36
14 8 7 12 24 22 30 34 35 37 42 43 43 41 38 38 39 38 32 27 25 19 18 20 20 22 24 25 23 21 20 20 19 17 15 18 22 25 28 30 32 34 36
9 15 20 18 19 19 30 33 34 36 39 40 42 43 40 39 34 32 35 33 26 24 19 17 21 28 23 22 22 20 19 17 14 15 15 18 24 29 34 39 39 40 41
Wind_Direction_500mb
217 219 223 214 201 198 206 201 198 180 196 190 191 188 190 193 192 189 195 202 199 198 196 197 200 204 201 207 203 207 210 207 213 220 231 239 246 245 245 248 249 253 257
220 215 222 216 204 203 194 200 201 206 193 185 184 185 186 188 190 197 208 206 202 202 202 203 207 207 206 215 214 219 226 224 226 234 243 250 258 257 255 253 256 261 265
217 214 213 215 214 200 201 204 208 203 195 195 188 193 198 199 200 204 209 203 201 206 205 208 212 211 224 224 227 231 238 240 238 247 240 235 243 266 267 254 258 259 259
218 220 214 214 211 207 199 203 207 205 204 206 194 192 195 195 198 201 204 201 196 203 209 213 219 218 226 234 237 239 241 245 244 246 248 251 253 260 273 265 263 255 252
215 216 218 222 216 207 203 198 202 205 207 205 207 201 200 199 198 201 204 210 209 211 212 222 224 222 227 239 242 249 249 249 249 252 257 257 254 257 258 264 259 267 267
218 221 223 218 219 211 209 202 195 198 200 203 203 203 201 203 201 203 206 211 214 213 219 221 228 233 235 239 248 252 257 258 263 267 263 258 257 257 259 261 265 262 268
217 212 217 216 216 217 211 210 200 194 198 201 203 210 209 210 209 208 213 214 218 218 220 223 228 235 242 249 256 261 264 265 267 268 270 266 264 261 265 263 267 263 268
234 221 218 218 215 214 215 214 211 202 199 201 204 207 212 218 219 224 223 218 221 225 230 234 239 245 248 251 258 260 265 271 275 272 268 268 273 269 273 270 262 258 262
268 234 220 220 218 212 214 215 215 213 210 207 205 207 209 213 217 221 223 226 228 230 239 243 244 247 251 255 263 264 261 272 278 278 267 269 274 269 265 268 268 258 249
282 234 224 222 221 218 215 216 218 221 220 215 213 214 215 217 220 222 224 225 229 232 237 242 244 247 251 254 254 253 260 275 276 284 271 273 276 258 262 270 269 260 256
289 244 229 226 224 222 221 222 221 222 222 222 221 220 221 221 222 226 227 229 232 234 237 248 247 248 246 246 249 255 263 273 278 275 266 263 265 253 267 269 263 256 252
294 264 240 232 228 225 223 223 225 226 227 228 226 227 228 227 227 229 229 231 233 232 237 242 248 254 249 247 250 258 268 270 280 262 263 268 283 271 268 263 260 259 257
290 267 245 239 236 233 229 227 227 230 233 231 231 232 231 232 235 236 236 237 236 233 239 249 253 258 248 252 257 265 267 268 249 261 263 271 267 266 261 258 256 248 245
273 270 261 249 245 236 234 235 237 236 236 237 237 237 238 238 239 239 240 239 239 238 244 244 249 255 254 258 265 274 270 264 254 254 264 274 265 260 257 252 244 240 240
286 273 265 253 243 242 240 237 239 242 243 238 238 240 244 246 245 245 246 245 244 245 246 246 249 251 255 259 266 275 262 262 258 258 260 268 253 249 245 237 235 241 246
281 278 277 256 251 250 246 234 236 243 244 241 240 240 242 246 250 253 253 252 251 249 251 252 252 254 256 259 268 267 267 253 252 256 259 244 235 231 227 238 238 235 235
294 275 269 275 266 262 249 237 233 242 242 235 239 239 239 243 251 257 255 253 251 252 253 256 257 259 263 264 268 269 262 255 252 251 234 228 223 233 236 232 223 224 233
283 278 283 275 257 258 258 249 241 241 246 239 237 238 238 241 246 251 254 252 250 250 254 258 261 261 259 262 261 253 253 242 232 224 222 229 236 230 233 229 226 230 242
284 282 289 285 268 252 254 254 247 244 244 245 238 236 237 238 238 242 247 249 255 256 252 258 255 251 247 253 243 241 228 215 211 216 222 225 227 229 220 219 223 240 269
294 281 277 280 280 268 258 250 251 249 241 241 237 233 230 231 234 240 246 247 246 245 243 237 239 241 238 228 221 216 212 213 215 220 217 213 215 211 214 226 250 277 283
302 284 271 273 272 270 264 251 244 237 235 233 228 222 217 216 219 218 226 233 238 237 237 232 219 205 196 192 200 206 221 229 225 214 206 204 207 217 240 264 277 279 278
318 298 271 261 261 262 255 240 231 228 223 215 210 203 199 190 187 198 212 217 225 223 209 196 179 175 181 191 191 196 202 202 202 192 197 216 244 268 283 281 279 282 286
331 322 276 244 244 242 234 227 218 214 201 191 184 185 179 181 195 202 200 197 194 188 178 178 189 180 175 177 168 169 173 180 196 212 231 260 276 275 274 280 286 292 295
342 346 327 225 171 163 169 182 179 180 180 174 167 168 173 168 168 171 172 171 173 182 189 184 181 171 169 177 180 187 197 210 219 231 247 255 264 272 279 288 299 297 297
357 40 72 102 111 133 149 152 159 167 167 161 157 157 160 160 159 156 152 157 162 169 181 176 177 177 180 183 195 205 210 221 230 242 261 271 278 281 283 288 292 289 289
23 82 94 86 94 119 138 145 154 163 164 156 152 155 154 149 149 153 150 148 157 159 164 172 183 178 189 199 211 218 227 242 271 290 282 282 285 282 282 284 285 288 291
Wind_Speed_850mb
26 23 19 25 28 27 32 38 60 55 66 73 73 82 81 81 84 88 70 74 72 63 56 50 46 45 42 34 28 25 24 25 27 27 27 29 30 34 36 34 33 31 27
38 33 27 27 33 34 34 43 46 62 67 74 71 80 83 81 81 71 69 75 72 65 57 53 50 50 42 42 33 28 29 34 31 33 33 30 36 46 44 43 42 39 36
50 46 40 32 30 40 43 45 48 59 72 69 74 76 72 73 80 80 79 73 71 65 62 57 53 44 44 41 36 30 32 39 38 39 37 15 22 23 26 29 31 37 39
55 50 46 41 39 37 42 45 49 60 68 79 74 89 86 85 91 89 87 73 66 62 66 57 54 50 49 46 43 37 35 39 45 50 55 54 52 35 24 31 32 30 31
62 63 57 46 39 41 45 50 54 57 63 65 80 78 89 87 86 92 100 89 80 77 73 70 56 60 60 50 48 46 46 45 48 52 59 64 67 68 66 52 44 50 43
60 61 56 51 46 43 46 49 54 60 64 69 81 81 97 96 90 90 97 96 79 92 88 82 78 64 60 51 46 49 51 50 51 57 64 72 68 67 72 75 69 63 59
43 58 64 65 58 53 50 53 56 62 71 75 80 89 91 96 103 103 94 98 96 86 84 78 80 78 72 66 60 56 54 59 63 66 67 68 72 76 82 79 70 64 60
29 52 64 67 65 59 57 57 59 61 67 74 82 84 87 92 97 95 103 111 108 96 87 85 88 88 87 86 79 78 72 66 70 74 72 64 64 74 62 74 73 62 63
30 45 59 68 68 67 64 61 60 60 63 63 69 78 84 87 91 95 99 104 113 107 102 100 97 97 96 97 94 95 90 80 75 74 75 75 54 56 63 73 80 76 52
25 35 49 62 69 68 69 68 64 61 61 63 66 69 74 79 86 88 90 94 98 103 105 100 102 100 102 103 92 88 83 82 82 79 83 80 96 80 77 79 75 69 73
21 29 36 49 61 63 68 72 74 73 72 70 70 74 76 78 80 79 76 77 79 80 78 75 81 82 86 87 83 86 88 80 77 98 96 78 68 71 74 71 71 73 65
24 23 34 38 51 62 65 69 76 80 77 76 78 78 79 78 77 79 81 84 87 77 67 82 80 81 84 81 86 92 90 79 78 71 59 64 65 63 69 65 69 67 65
22 20 25 37 44 54 60 61 67 72 80 84 84 84 83 80 82 83 83 82 75 72 84 67 78 72 79 92 93 85 86 74 62 72 63 68 66 66 63 65 60 59 54
35 27 32 41 43 51 57 56 56 61 70 76 81 87 89 89 89 88 85 84 79 79 80 81 76 72 61 68 73 80 78 72 64 66 62 61 59 56 52 51 51 48 44
64 46 44 43 45 44 52 52 50 51 56 60 66 67 76 84 88 91 91 89 87 89 91 88 90 88 86 93 93 83 66 75 70 71 68 60 47 45 43 42 41 42 42
60 59 50 45 48 45 46 49 46 49 55 54 55 60 61 66 71 75 79 82 86 93 97 98 94 97 100 93 81 65 61 64 68 66 65 57 48 44 42 44 45 44 43
54 55 55 58 52 52 50 54 50 53 59 56 57 60 59 56 55 62 66 65 69 71 79 85 85 81 73 70 57 65 71 71 67 66 57 50 43 42 43 44 44 42 40
49 40 54 61 67 64 53 54 63 59 58 62 63 63 59 53 55 57 57 58 60 62 61 59 58 59 56 49 56 59 59 54 48 49 45 42 41 42 43 44 44 41 35
63 71 70 49 53 68 70 67 66 72 66 64 69 68 62 57 54 52 53 49 43 47 55 58 62 61 53 57 58 53 50 47 46 43 39 40 42 45 48 43 36 30 31
63 70 63 63 54 49 58 68 75 73 72 68 69 65 58 53 45 40 37 37 43 49 51 52 55 56 48 45 39 40 42 43 40 40 43 46 44 43 39 31 25 28 31
59 66 76 72 63 47 42 48 58 60 65 64 58 54 50 46 36 28 34 36 40 46 49 49 46 42 38 38 32 30 29 32 36 42 43 40 35 27 23 26 27 29 32
58 50 57 65 54 40 35 38 47 56 54 49 46 43 39 32 30 30 34 36 37 43 45 45 46 40 34 31 29 27 24 30 30 31 25 22 22 24 27 29 31 32 32
48 38 33 35 35 31 27 34 38 40 40 42 43 39 39 31 28 34 39 36 38 41 41 35 29 32 34 33 34 34 31 28 23 20 18 19 24 28 32 31 28 30 31
31 21 11 4 11 14 17 21 30 36 39 41 41 39 36 33 34 33 32 32 32 30 27 30 31 31 32 30 30 28 26 22 19 17 19 22 24 25 25 25 30 34 36
14 8 7 12 24 22 30 34 35 37 42 43 43 41 38 38 39 38 32 27 25 19 18 20 20 22 24 25 23 21 20 20 19 17 15 18 22 25 28 30 32 34 36
9 15 20 18 19 19 30 33 34 36 39 40 42 43 40 39 34 32 35 33 26 24 19 17 21 28 23 22 22 20 19 17 14 15 15 18 24 29 34 39 39 40 41
Wind_Direction_850mb
217 219 223 214 201 198 206 201 198 180 196 190 191 188 190 193 192 189 195 202 199 198 196 197 200 204 201 207 203 207 210 207 213 220 231 239 246 245 245 248 249 253 257
220 215 222 216 204 203 194 200 201 206 193 185 184 185 186 188 190 197 208 206 202 202 202 203 207 207 206 215 214 219 226 224 226 234 243 250 258 257 255 253 256 261 265
217 214 213 215 214 200 201 204 208 203 195 195 188 193 198 199 200 204 209 203 201 206 205 208 212 211 224 224 227 231 238 240 238 247 240 235 243 266 267 254 258 259 259
218 220 214 214 211 207 199 203 207 205 204 206 194 192 195 195 198 201 204 201 196 203 209 213 219 218 226 234 237 239 241 245 244 246 248 251 253 260 273 265 263 255 252
215 216 218 222 216 207 203 198 202 205 207 205 207 201 200 199 198 201 204 210 209 211 212 222 224 222 227 239 242 249 249 249 249 252 257 257 254 257 258 264 259 267 267
218 221 223 218 219 211 209 202 195 198 200 203 203 203 201 203 201 203 206 211 214 213 219 221 228 233 235 239 248 252 257 258 263 267 263 258 257 257 259 261 265 262 268
217 212 217 216 216 217 211 210 200 194 198 201 203 210 209 210 209 208 213 214 218 218 220 223 228 235 242 249 256 261 264 265 267 268 270 266 264 261 265 263 267 263 268
234 221 218 218 215 214 215 214 211 202 199 201 204 207 212 218 219 224 223 218 221 225 230 234 239 245 248 251 258 260 265 271 275 272 268 268 273 269 273 270 262 258 262
268 234 220 220 218 212 214 215 215 213 210 207 205 207 209 213 217 221 223 226 228 230 239 243 244 247 251 255 263 264 261 272 278 278 267 269 274 269 265 268 268 258 249
282 234 224 222 221 218 215 216 218 221 220 215 213 214 215 217 220 222 224 225 229 232 237 242 244 247 251 254 254 253 260 275 276 284 271 273 276 258 262 270 269 260 256
289 244 229 226 224 222 221 222 221 222 222 222 221 220 221 221 222 226 227 229 232 234 237 248 247 248 246 246 249 255 263 273 278 275 266 263 265 253 267 269 263 256 252
294 264 240 232 228 225 223 223 225 226 227 228 226 227 228 227 227 229 229 231 233 232 237 242 248 254 249 247 250 258 268 270 280 262 263 268 283 271 268 263 260 259 257
290 267 245 239 236 233 229 227 227 230 233 231 231 232 231 232 235 236 236 237 236 233 239 249 253 258 248 252 257 265 267 268 249 261 263 271 267 266 261 258 256 248 245
273 270 261 249 245 236 234 235 237 236 236 237 237 237 238 238 239 239 240 239 239 238 244 244 249 255 254 258 265 274 270 264 254 254 264 274 265 260 257 252 244 240 240
286 273 265 253 243 242 240 237 239 242 243 238 238 240 244 246 245 245 246 245 244 245 246 246 249 251 255 259 266 275 262 262 258 258 260 268 253 249 245 237 235 241 246
281 278 277 256 251 250 246 234 236 243 244 241 240 240 242 246 250 253 253 252 251 249 251 252 252 254 256 259 268 267 267 253 252 256 259 244 235 231 227 238 238 235 235
294 275 269 275 266 262 249 237 233 242 242 235 239 239 239 243 251 257 255 253 251 252 253 256 257 259 263 264 268 269 262 255 252 251 234 228 223 233 236 232 223 224 233
283 278 283 275 257 258 258 249 241 241 246 239 237 238 238 241 246 251 254 252 250 250 254 258 261 261 259 262 261 253 253 242 232 224 222 229 236 230 233 229 226 230 242
284 282 289 285 268 252 254 254 247 244 244 245 238 236 237 238 238 242 247 249 255 256 252 258 255 251 247 253 243 241 228 215 211 216 222 225 227 229 220 219 223 240 269
294 281 277 280 280 268 258 250 251 249 241 241 237 233 230 231 234 240 246 247 246 245 243 237 239 241 238 228 221 216 212 213 215 220 217 213 215 211 214 226 250 277 283
302 284 271 273 272 270 264 251 244 237 235 233 228 222 217 216 219 218 226 233 238 237 237 232 219 205 196 192 200 206 221 229 225 214 206 204 207 217 240 264 277 279 278
318 298 271 261 261 262 255 240 231 228 223 215 210 203 199 190 187 198 212 217 225 223 209 196 179 175 181 191 191 196 202 202 202 192 197 216 244 268 283 281 279 282 286
331 322 276 244 244 242 234 227 218 214 201 191 184 185 179 181 195 202 200 197 194 188 178 178 189 180 175 177 168 169 173 180 196 212 231 260 276 275 274 280 286 292 295
342 346 327 225 171 163 169 182 179 180 180 174 167 168 173 168 168 171 172 171 173 182 189 184 181 171 169 177 180 187 197 210 219 231 247 255 264 272 279 288 299 297 297
357 40 72 102 111 133 149 152 159 167 167 161 157 157 160 160 159 156 152 157 162 169 181 176 177 177 180 183 195 205 210 221 230 242 261 271 278 281 283 288 292 289 289
23 82 94 86 94 119 138 145 154 163 164 156 152 155 154 149 149 153 150 148 157 159 164 172 183 178 189 199 211 218 227 242 271 290 282 282 285 282 282 284 285 288 291